カタログに戻る

OPS 4682 DEB

運用中PO
NORAD 38396·DEBRIS·🇺🇸 United States

打ち上げ Apr 3, 1965 から Vandenberg Space Force Base

Loading…

次のパス (今後24時間)

TLE

最新Source: Space-Track

元期: Sep 14, 2026, 13:19 UTC

1 38396U 65027CZ  26257.55548556  .00000388  00000-0  13003-2 0  9992
2 38396  90.2593  13.4059 0037475 213.3908 146.4849 12.97947897674795

AllMySatでOPS 4682 DEBをリアルタイム追跡

Download on the App Store